CW5834 Weather Reports


Display with metric or nautical units.
time (UTC)temp
F
wind
direction
speed
MPH
gust
MPH
rain 1hr
in
rain 24hr
in
rain mn
in
humidity
%
barometer
mb
20260831044018 69 0.0 2.0 0.00 0.00 0.00 90 1022.0
20260831043017 69 0.0 2.0 0.00 0.00 0.00 90 1022.0
20260831042037 68 0.0 0.0 0.00 0.00 0.00 90 1021.8
20260831041017 69 0.0 2.0 0.00 0.00 0.00 90 1021.9
20260831040017 69 0 1.0 1.0 0.00 0.00 0.00 90 1021.9
20260831035016 69 0.0 0.0 0.00 0.00 0.00 90 1021.9
20260831034016 69 0.0 0.0 0.00 0.00 0.00 90 1021.8
20260831033018 69 0.0 0.0 0.00 0.00 0.00 90 1021.7
20260831032019 69 0.0 0.0 0.00 0.00 0.00 89 1021.7
20260831031021 69 0.0 1.0 0.00 0.00 0.00 89 1021.9
20260831030016 70 0.0 0.0 0.00 0.00 0.00 89 1021.9
20260831025016 70 0.0 0.0 0.00 0.00 0.00 88 1021.9
20260831024016 70 0.0 0.0 0.00 0.00 0.00 88 1021.9
20260831023136 70 0.0 0.0 0.00 0.00 0.00 89 1022.0
20260831022016 71 0.0 1.0 0.00 0.00 0.00 88 1022.0
20260831021036 71 0.0 1.0 0.00 0.00 0.00 89 1021.9
20260831020016 71 0.0 2.0 0.00 0.00 0.00 89 1021.9
20260831015016 72 0.0 2.0 0.00 0.00 0.00 89 1021.7
20260831014019 72 0.0 2.0 0.00 0.00 0.00 88 1021.7
20260831013019 73 0.0 2.0 0.00 0.00 0.00 88 1021.6
20260831012018 73 0.0 2.0 0.00 0.00 0.00 88 1021.5
20260831011016 74 0.0 0.0 0.00 0.00 0.00 87 1021.3
20260831010015 74 0.0 0.0 0.00 0.00 0.00 86 1021.5
20260831005016 74 0.0 1.0 0.00 0.00 0.00 86 1021.3
20260831004015 75 0.0 0.0 0.00 0.00 0.00 85 1021.1
20260831003016 76 0.0 0.0 0.00 0.00 0.00 83 1021.2
20260831002035 76 0.0 1.0 0.00 0.00 0.00 82 1021.0
20260831001016 77 0.0 1.0 0.00 0.00 0.00 81 1020.7
20260831000015 78 0.0 1.0 0.00 0.00 0.00 80 1020.8
20260830235035 79 0.0 1.0 0.00 0.00 0.00 80 1020.8
20260830234037 80 0.0 2.0 0.00 0.00 0.00 79 1020.6
20260830233017 81 0.0 1.0 0.00 0.00 0.00 78 1020.7
20260830232017 82 338 1.0 1.0 0.00 0.00 0.00 75 1020.8
20260830231018 84 338 1.0 1.0 0.00 0.00 0.00 71 1020.9
20260830230015 85 338 1.0 1.0 0.00 0.00 0.00 69 1021.1
20260830225037 86 338 1.0 1.0 0.00 0.00 0.00 68 1020.9
20260830224017 87 315 1.0 1.0 0.00 0.00 0.00 66 1021.0
20260830223017 88 315 1.0 1.0 0.00 0.00 0.00 63 1020.9
20260830222057 88 338 1.0 2.0 0.00 0.00 0.00 59 1021.1
20260830221021 89 0 1.0 2.0 0.00 0.00 0.00 60 1021.2
20260830220020 89 338 1.0 2.0 0.00 0.00 0.00 58 1021.2
20260830215024 89 0.0 2.0 0.00 0.00 0.00 53 1021.3
20260830214017 89 0 2.0 3.0 0.00 0.00 0.00 53 1021.1
20260830213017 89 338 2.0 3.0 0.00 0.00 0.00 54 1021.2
20260830212017 90 0.0 2.0 0.00 0.00 0.00 54 1021.2
20260830211017 89 293 1.0 3.0 0.00 0.00 0.00 53 1021.3
20260830210017 89 293 2.0 5.0 0.00 0.00 0.00 52 1021.3
20260830205037 90 315 2.0 4.0 0.00 0.00 0.00 53 1021.5
20260830204017 89 315 1.0 4.0 0.00 0.00 0.00 55 1021.6
20260830203057 89 270 1.0 3.0 0.00 0.00 0.00 56 1021.6
20260830202017 89 293 2.0 3.0 0.00 0.00 0.00 56 1021.7
20260830201017 89 225 1.0 3.0 0.00 0.00 0.00 58 1021.7
20260830200017 89 293 2.0 8.0 0.00 0.00 0.00 56 1021.9
20260830195017 89 23 2.0 4.0 0.00 0.00 0.00 56 1022.0
20260830194017 88 270 1.0 2.0 0.00 0.00 0.00 60 1022.1
20260830193017 88 23 1.0 3.0 0.00 0.00 0.00 59 1022.2
20260830192137 88 293 2.0 5.0 0.00 0.00 0.00 58 1022.5
20260830191017 88 338 3.0 6.0 0.00 0.00 0.00 58 1022.7
20260830190017 88 338 3.0 6.0 0.00 0.00 0.00 58 1022.7
20260830185037 87 180 2.0 6.0 0.00 0.00 0.00 60 1022.8
20260830184017 87 203 2.0 5.0 0.00 0.00 0.00 60 1022.9
20260830183057 87 203 1.0 3.0 0.00 0.00 0.00 60 1023.1
20260830182039 87 338 3.0 7.0 0.00 0.00 0.00 62 1023.5
20260830181017 86 0 2.0 5.0 0.00 0.00 0.00 65 1023.6
20260830180017 87 315 3.0 8.0 0.00 0.00 0.00 63 1023.7
20260830175037 86 45 2.0 4.0 0.00 0.00 0.00 62 1023.8
20260830174036 85 135 2.0 3.0 0.00 0.00 0.00 64 1024.0
20260830173017 85 180 1.0 4.0 0.00 0.00 0.00 66 1024.1
20260830172016 86 225 1.0 2.0 0.00 0.00 0.00 64 1024.1
20260830171020 85 225 1.0 3.0 0.00 0.00 0.00 66 1024.1
20260830170019 85 180 2.0 3.0 0.00 0.00 0.00 66 1024.2
20260830165040 85 113 1.0 2.0 0.00 0.00 0.00 68 1024.4
20260830164020 85 180 2.0 6.0 0.00 0.00 0.00 65 1024.4
20260830163016 85 293 3.0 7.0 0.00 0.00 0.00 67 1024.4
20260830162016 84 338 1.0 4.0 0.00 0.00 0.00 67 1024.4
20260830161016 84 113 2.0 4.0 0.00 0.00 0.00 70 1024.6
20260830160016 83 203 3.0 8.0 0.00 0.00 0.00 68 1024.7
20260830155037 83 225 3.0 7.0 0.00 0.00 0.00 69 1024.7
20260830154016 82 158 1.0 4.0 0.00 0.00 0.00 72 1024.8
20260830153016 82 203 2.0 5.0 0.00 0.00 0.00 72 1024.7
20260830152016 81 180 2.0 5.0 0.00 0.00 0.00 72 1024.8
20260830151016 82 225 1.0 3.0 0.00 0.00 0.00 74 1024.8
20260830150039 81 203 2.0 6.0 0.00 0.00 0.00 73 1024.7
20260830145024 81 225 2.0 4.0 0.00 0.00 0.00 73 1024.6
20260830144016 81 248 2.0 5.0 0.00 0.00 0.00 74 1024.5
20260830143019 80 203 3.0 6.0 0.00 0.00 0.00 75 1024.4
20260830142022 80 203 3.0 6.0 0.00 0.00 0.00 75 1024.5
20260830141016 79 225 2.0 5.0 0.00 0.00 0.00 77 1024.6
20260830140016 79 158 1.0 4.0 0.00 0.00 0.00 79 1024.7
20260830135036 79 180 1.0 3.0 0.00 0.00 0.00 77 1024.6
20260830134016 79 135 1.0 2.0 0.00 0.00 0.00 78 1024.6
20260830133016 78 0.0 2.0 0.00 0.00 0.00 82 1024.6
20260830132016 77 225 1.0 3.0 0.00 0.00 0.00 84 1024.5
20260830131016 76 0.0 2.0 0.00 0.00 0.00 88 1024.3
20260830130016 74 0.0 2.0 0.00 0.00 0.00 89 1024.1
20260830125036 73 0.0 2.0 0.00 0.00 0.00 89 1023.9
20260830124016 71 0.0 0.0 0.00 0.00 0.00 93 1023.8
20260830123018 70 0.0 2.0 0.00 0.00 0.00 93 1023.8
20260830122036 70 0.0 2.0 0.00 0.00 0.00 94 1023.9
20260830121016 69 0.0 0.0 0.00 0.00 0.00 95 1023.6
20260830120016 68 0.0 2.0 0.00 0.00 0.00 95 1023.5
20260830115016 67 0.0 2.0 0.00 0.00 0.00 95 1023.5
20260830114016 67 0.0 2.0 0.00 0.00 0.00 95 1023.3
20260830113016 67 0.0 2.0 0.00 0.00 0.00 95 1023.3
20260830112019 67 0.0 2.0 0.00 0.00 0.00 95 1023.4
20260830111039 67 0.0 1.0 0.00 0.00 0.00 95 1023.3
20260830110018 67 0 1.0 2.0 0.00 0.00 0.00 95 1023.2
20260830105018 67 0.0 2.0 0.00 0.00 0.00 95 1023.4
20260830104015 67 0.0 2.0 0.00 0.00 0.00 95 1023.4
20260830103036 67 0.0 2.0 0.00 0.00 0.00 95 1023.2
20260830102036 67 0.0 2.0 0.00 0.00 0.00 95 1023.2
20260830101056 67 0.0 2.0 0.00 0.00 0.00 94 1023.1
20260830100016 67 0.0 0.0 0.00 0.00 0.00 95 1023.0
20260830095055 67 0.0 2.0 0.00 0.00 0.00 95 1023.0
20260830094016 67 90 1.0 1.0 0.00 0.00 0.00 95 1022.9
20260830093015 67 0.0 0.0 0.00 0.00 0.00 94 1022.7
20260830092015 68 0.0 1.0 0.00 0.00 0.00 95 1022.8
20260830091036 67 0 1.0 1.0 0.00 0.00 0.00 94 1022.8
20260830090019 67 0.0 2.0 0.00 0.00 0.00 94 1022.9
20260830085015 68 0.0 0.0 0.00 0.00 0.00 94 1023.0
20260830084015 68 338 1.0 1.0 0.00 0.00 0.00 94 1023.1
20260830083015 68 0.0 0.0 0.00 0.00 0.00 94 1023.0
20260830082035 68 0.0 2.0 0.00 0.00 0.00 94 1023.0
20260830081015 68 0.0 2.0 0.00 0.00 0.00 94 1023.0
20260830080015 68 0.0 1.0 0.00 0.00 0.00 93 1022.9
20260830075018 69 0.0 0.0 0.00 0.00 0.00 93 1022.8
20260830074017 69 0.0 1.0 0.00 0.00 0.00 93 1022.8
20260830073035 69 23 1.0 2.0 0.00 0.00 0.00 93 1022.9
20260830072057 69 0.0 1.0 0.00 0.00 0.00 92 1022.7
20260830071017 69 0.0 1.0 0.00 0.00 0.00 92 1022.5
20260830070037 69 23 1.0 1.0 0.00 0.00 0.00 92 1022.6
20260830065017 70 23 1.0 1.0 0.00 0.00 0.00 92 1022.7
20260830064017 70 0.0 1.0 0.00 0.00 0.00 91 1022.9
20260830063020 70 0.0 2.0 0.00 0.00 0.00 90 1022.8
20260830062020 71 0.0 2.0 0.00 0.00 0.00 90 1022.7
20260830061028 71 0.0 2.0 0.00 0.00 0.00 89 1022.8
20260830060017 72 45 1.0 1.0 0.00 0.00 0.00 89 1023.0
20260830055017 72 203 1.0 2.0 0.00 0.00 0.00 87 1022.9
20260830054017 73 0 1.0 3.0 0.00 0.00 0.00 87 1023.1
20260830053017 73 0.0 2.0 0.00 0.00 0.00 87 1023.1
20260830052017 73 0.0 2.0 0.00 0.00 0.00 87 1023.1
20260830051017 72 338 1.0 3.0 0.00 0.00 0.00 89 1023.0
20260830050017 72 0.0 2.0 0.00 0.00 0.00 88 1023.0
20260830045017 71 338 1.0 2.0 0.00 0.00 0.00 90 1023.0